Flag for U.S.A. Weather past 2 weeks in Annapolis, Maryland, U.S.A.

Now
72 °F

Broken clouds.


Feels Like: 73 °F
Forecast: 69 / 82 °F
Wind: 6 mph from North

Location: Annapolis - United States Naval Academy

Current Time: Jul 26, 2014 at 8:17:41 AM

Latest Report: Jul 26, 2014 at 7:54 AM


Visibility: 10 mi

Pressure: 30.00 "Hg

Humidity: 76%

Dew point: 64 °F

Location of AnnapolisLocation

Historic Weather in Annapolis — Graph

°F

Annapolis temperature yesterday

Maximum temperature yesterday: 79 °F (at 2:54 PM)
Minimum temperature yesterday: 66 °F (at 6:54 AM)
Average temperature yesterday: 73 °F

Past Weeks' High & Low Weather Summary

 TemperatureHumidityPressure
High91 °F (Jul 13, 3:54 PM)94% (Jul 14, 11:54 PM)30.24 "Hg (Jul 14, 11:54 PM)
Low66 °F (Jul 17, 2:54 AM)36% (Jul 18, 4:54 PM)29.72 "Hg (Jul 15, 2:54 PM)
Average76 °F71%30.03 "Hg
* Reported Jul 11 6:54 AM — Jul 26 6:54 AM, Annapolis, Weather by CustomWeather, © 2014

Note: Actual official high and low records may vary slightly from our data, if they occured in-between our weather recording intervals... More about our weather records

Advertising

Annapolis weather history for previous 24 hours

 ConditionsComfort  
Time TempWeatherWind HumidityBarometerVisibility
6:54 AM
Jul 26
71 °FPassing clouds.6 mph78%30.01 "Hg10 mi
5:54 AM71 °FPassing clouds.6 mph76%30.00 "Hg10 mi
4:54 AM72 °FPassing clouds.5 mph71%29.99 "Hg10 mi
3:54 AM71 °FClear.3 mph73%30.00 "Hg10 mi
2:54 AM71 °FPartly cloudy.No wind73%30.00 "Hg10 mi
1:54 AM71 °FClear.No wind71%30.01 "Hg10 mi
12:54 AM72 °FClear.5 mph68%30.01 "Hg10 mi
11:54 PM
Jul 25
73 °FClear.No wind64%30.01 "Hg10 mi
10:54 PM73 °FClear.5 mph62%30.01 "Hg10 mi
9:54 PM73 °FClear.5 mph57%30.03 "Hg10 mi
8:54 PM74 °FSunny.6 mph53%30.03 "Hg10 mi
7:54 PM75 °FSunny.6 mph48%30.02 "Hg10 mi
6:54 PM78 °FSunny.8 mph48%30.01 "Hg10 mi
5:54 PM78 °FSunny.8 mph45%30.00 "Hg10 mi
4:54 PM78 °FSunny.9 mph45%30.00 "Hg10 mi
3:54 PM78 °FSunny.12 mph46%30.00 "Hg10 mi
2:54 PM79 °FSunny.No wind41%30.01 "Hg10 mi
1:54 PM78 °FSunny.9 mph42%30.03 "Hg10 mi
12:54 PM77 °FSunny.3 mph42%30.04 "Hg10 mi
11:54 AM76 °FSunny.7 mph45%30.06 "Hg10 mi
10:54 AM73 °FSunny.9 mph46%30.06 "Hg10 mi
9:54 AM72 °FSunny.9 mph52%30.07 "Hg10 mi
8:54 AM70 °FSunny.7 mph61%30.06 "Hg10 mi
Weather by CustomWeather, © 2014

See weather overviewHow to use our weather pages